Regional & State Weather Roundups


400 
ASUS44 KLCH 170010
RWRLCH
REGIONAL WEATHER ROUNDUP
NATIONAL WEATHER SERVICE LAKE CHARLES LA
600 PM CST SAT DEC 16 2017
Note: "fair" indicates few or no clouds below 12,000 feet with no
significant weather and/or obstructions to visibility.
ACROSS SOUTHEAST TEXAS
  
CITY           SKY/WX    TMP DP  RH WIND       PRES   REMARKS
BEAUMONT       CLOUDY    57  38  48 E12G22    30.06S                  
BEAUMONT CITY  CLOUDY    58  36  43 E9G18     30.07F                  
ORANGE         CLOUDY    57  41  54 E9        30.09R                  
JASPER         CLOUDY    57  40  53 CALM      30.13R                  
$$
ACROSS CENTRAL LOUISIANA
  
CITY           SKY/WX    TMP DP  RH WIND       PRES   REMARKS
LEESVILLE      CLOUDY    54  36  50 E7        30.10F                  
FULLERTON      CLOUDY    53  40  61 VRB3      30.11R HAZE             
ALEXANDRIA INT CLOUDY    54  34  46 E3        30.14R                  
ESLER FIELD    PTCLDY    47  37  68 CALM      30.15R                  
DERIDDER       CLOUDY    56  32  40 E3        30.12F                  
OAKDALE        CLOUDY    51  43  73 CALM      30.13S                  
OPELOUSAS      CLOUDY    56  34  42 E3        30.14S                  
$$
ACROSS SOUTHWEST AND SOUTH CENTRAL LOUISIANA
  
CITY           SKY/WX    TMP DP  RH WIND       PRES   REMARKS
SULPHUR        CLOUDY    58  38  47 E8        30.09F                  
LAKE CHARLES   CLOUDY    57  39  51 E9        30.09F                  
CHENNAULT INT  CLOUDY    55  39  54 E6        30.10F                  
CAMERON PHI    NOT AVBL                                               
DEQUINCY       CLOUDY    55  35  47 E3        30.09F                  
JENNINGS       CLOUDY    58  37  46 E6        30.11F                  
LAFAYETTE      CLOUDY    58  40  51 E6        30.13F                  
NEW IBERIA     CLOUDY    58  37  45 E13       30.13F                  
ABBEVILLE      CLOUDY    57  42  57 E7        30.13S                  
PATTERSON      CLOUDY    55  46  71 E13       30.15F                  
SALT POINT       N/A     56  46  69 VRB6      30.12F                  
$$
SELECTED SITES ACROSS THE REGION
  
CITY           SKY/WX    TMP DP  RH WIND       PRES   REMARKS
HOUSTON BUSH   LGT RAIN  55  37  50 E12       30.02F                  
HOUSTON HOBBY  CLOUDY    55  45  68 E12G21    30.00F                  
GALVESTON      LGT RAIN  60  55  83 E17G23    30.01F                  
COLLEGE STAT   RAIN      46  44  93 NE9       30.01F FOG              
CONROE         CLOUDY    51  45  79 NE3       30.03F                  
HUNTSVILLE     CLOUDY    46  44  93 NE7       30.02F                  
LUFKIN         CLOUDY    49  40  71 NE6       30.09F                  
SHREVEPORT     LGT RAIN  49  42  77 SW3       30.15R                  
MONROE         CLOUDY    62  37  39 CALM      30.16S                  
NATCHEZ MS     CLEAR     51  32  48 SE5       30.18R                  
BATON ROUGE    CLOUDY    54  29  38 E9        30.17S                  
N.O. INTL ARPT MOCLDY    54  45  71 E7        30.19R                  
SLIDELL        CLOUDY    53  34  48 VRB3      30.20R                  
$$
MARINE REPORTS
  
STATION/POSITION TIME  SKY/WX   TEMP    WIND        PRES    VSBY
                                AIR SEA DIR/SP/G
                 (UTC)          (F)     (DEG/KT/KT) (MB)    (MI)
BUOY 30 S HIGH I 2250            60 62   90/ 21/ 25 1016.5
WVE H/P(F/S)=  5/ 5
SEA RIM ST PARK  0000            57     100/ 16/ 19 1018.0F
PORT ARTHUR      2348            55 57  100/  5/  9 1018.1F
SABINE PASS N    2348                   100/ 16/ 22   N/A
TEXAS POINT      NOT AVBL
CALCASIEU PASS   2348            57 58  100/ 10/ 13 1017.5S
LK CHARLES BEACH 2348            58 60              1018.4F
MARSH ISLAND     2300            56                   N/A
FRESH WATER LOCK 2348            56 55   60/  8/ 12 1019.4F
AMERADA PASS     2348            55 53   80/  8/ 13 1020.1F
$$